sat.trackr.live / text

‹ back to catalog

STARLINK-33950

NORAD 63701 · 2025-087E

PAYLOAD ACTIVE UNKNOWN

§ Identity

Operator
Country
US
Launch date
2025-04-28
Launch site
AFWTR
Launch vehicle
Mass (kg)
RCS (m²)

Purposes: comms

External: N2YO · Heavens-Above · Gunter

§ Orbital elements

Epoch: 2026-05-25T05:04:36.828768Z

Period
94.02 min
Inclination
53.1591°
Eccentricity
0.0001435
Mean motion
15.31662348 rev/d
Perigee alt
469.9 km
Apogee alt
471.8 km
Semi-major
6,849.0 km
B*
3.7013e-3
RAAN
224.2491°
Arg perigee
67.4073°
Mean anomaly
292.7080°
Rev number
6,091

§ Raw data

STARLINK-339501 63701U 25087E   26145.21153737  .00116155  00000+0  37013-2 0  99902 63701  53.1591 224.2491 0001435  67.4073 292.7080 15.31662348 60910

JSON: /api/v1/satellites/63701 · /tle

For live sub-satellite position, see the globe view (requires WebGL).

§ Visibility from observer

Set your observer location to see the next 7 days of passes ≥ 10°. The values pass through the URL so the page stays shareable.

No JS? Fill the form by hand. The geolocation button needs JavaScript.